Location: Jackson Park
(37.2862°N, 79.9123°W)
Time: 14:50:59
(UTC+00:00)

S-56A Canister/Altair - Pass Details

Date: 12 May 2026
Orbit: 633 x 2484 km, 38.9° (Epoch: 6 June)

Event Time Altitude Azimuth Distance (km) Brightness Sun altitude
Rises 02:03:20 0° 232° (SW) 3,000 10.7 -18.4°
Reaches altitude 10° 02:05:46 10° 225° (SW) 2,023 9.7 -18.8°
Enters shadow 02:09:55 42° 156° (SSE) 901 7.4 -19.4°
Maximum altitude 02:09:58 42° 154° (SSE) 901 - -19.4°
Drops below altitude 10° 02:14:26 10° 82° (E) 2,151 - -20.0°
Sets 02:17:07 0° 76° (ENE) 3,218 - -20.4°
